| time (UTC) | temp F | wind direction | speed MPH | gust MPH | rain 1hr in | rain 24hr in | rain mn in | humidity % | barometer mb |
| 20260507040549 | 33 | 236 | 16.0 | 18.0 | 0.00 | 0.00 | 0.00 | 83 | 1016.7 |
| 20260507040045 | 34 | 238 | 16.0 | 18.0 | 0.00 | 0.00 | 0.00 | 83 | 1016.9 |
| 20260507035541 | 34 | 242 | 13.0 | 18.0 | 0.00 | 0.00 | 0.00 | 83 | 1016.7 |
| 20260507035037 | 34 | 267 | 11.0 | 18.0 | 0.00 | 0.00 | 0.00 | 83 | 1016.8 |
| 20260507034534 | 34 | 247 | 12.0 | 17.0 | 0.00 | 0.00 | 0.00 | 83 | 1016.9 |
| 20260507034032 | 34 | 244 | 10.0 | 15.0 | 0.00 | 0.00 | 0.00 | 83 | 1016.7 |
| 20260507033529 | 34 | 235 | 13.0 | 15.0 | 0.00 | 0.00 | 0.00 | 83 | 1016.9 |
| 20260507033026 | 34 | 242 | 11.0 | 16.0 | 0.00 | 0.00 | 0.00 | 83 | 1016.9 |
| 20260507032523 | 34 | 237 | 12.0 | 16.0 | 0.00 | 0.00 | 0.00 | 82 | 1017.0 |
| 20260507032020 | 34 | 240 | 9.0 | 14.0 | 0.00 | 0.00 | 0.00 | 83 | 1017.1 |
| 20260507031516 | 34 | 227 | 10.0 | 15.0 | 0.00 | 0.00 | 0.00 | 82 | 1017.0 |
| 20260507031008 | 34 | 229 | 11.0 | 14.0 | 0.00 | 0.00 | 0.00 | 82 | 1017.0 |
| 20260507030504 | 34 | 238 | 8.0 | 13.0 | 0.00 | 0.00 | 0.00 | 82 | 1016.9 |
| 20260507030002 | 34 | 218 | 12.0 | 16.0 | 0.00 | 0.00 | 0.00 | 82 | 1017.1 |
| 20260507025459 | 34 | 242 | 11.0 | 15.0 | 0.00 | 0.00 | 0.00 | 82 | 1016.8 |
| 20260507024957 | 34 | 221 | 15.0 | 16.0 | 0.00 | 0.00 | 0.00 | 82 | 1016.9 |
| 20260507024454 | 34 | 234 | 13.0 | 15.0 | 0.00 | 0.00 | 0.00 | 82 | 1016.7 |
| 20260507023950 | 35 | 246 | 12.0 | 14.0 | 0.00 | 0.00 | 0.00 | 82 | 1017.0 |
| 20260507023446 | 35 | 239 | 13.0 | 16.0 | 0.00 | 0.00 | 0.00 | 82 | 1016.8 |
| 20260507022944 | 35 | 236 | 13.0 | 16.0 | 0.00 | 0.00 | 0.00 | 81 | 1016.9 |
| 20260507022441 | 35 | 241 | 13.0 | 16.0 | 0.00 | 0.00 | 0.00 | 81 | 1016.7 |
| 20260507021936 | 35 | 228 | 13.0 | 18.0 | 0.00 | 0.00 | 0.00 | 81 | 1017.0 |
| 20260507021432 | 35 | 244 | 12.0 | 15.0 | 0.00 | 0.00 | 0.00 | 80 | 1016.8 |
| 20260507020930 | 35 | 230 | 12.0 | 15.0 | 0.00 | 0.00 | 0.00 | 80 | 1016.8 |
| 20260507020426 | 36 | 247 | 13.0 | 16.0 | 0.00 | 0.00 | 0.00 | 79 | 1017.1 |
| 20260507015923 | 36 | 248 | 13.0 | 18.0 | 0.00 | 0.00 | 0.00 | 78 | 1017.0 |
| 20260507015421 | 37 | 232 | 15.0 | 21.0 | 0.00 | 0.00 | 0.00 | 77 | 1017.0 |
| 20260507014918 | 37 | 240 | 14.0 | 17.0 | 0.00 | 0.00 | 0.00 | 77 | 1016.9 |
| 20260507014415 | 37 | 222 | 10.0 | 21.0 | 0.00 | 0.00 | 0.00 | 76 | 1016.9 |
| 20260507013911 | 37 | 252 | 13.0 | 17.0 | 0.00 | 0.00 | 0.00 | 75 | 1016.8 |
| 20260507013408 | 38 | 252 | 13.0 | 18.0 | 0.00 | 0.00 | 0.00 | 74 | 1016.9 |
| 20260507012906 | 38 | 253 | 15.0 | 18.0 | 0.00 | 0.00 | 0.00 | 74 | 1017.0 |
| 20260507012402 | 38 | 232 | 16.0 | 20.0 | 0.00 | 0.00 | 0.00 | 72 | 1017.1 |
| 20260507011859 | 39 | 229 | 20.0 | 23.0 | 0.00 | 0.00 | 0.00 | 70 | 1017.1 |
| 20260507011355 | 39 | 265 | 14.0 | 20.0 | 0.00 | 0.00 | 0.00 | 70 | 1017.1 |
| 20260507010849 | 39 | 239 | 15.0 | 18.0 | 0.00 | 0.00 | 0.00 | 70 | 1017.0 |
| 20260507010339 | 39 | 245 | 15.0 | 18.0 | 0.00 | 0.00 | 0.00 | 68 | 1017.3 |
| 20260507005837 | 39 | 238 | 18.0 | 21.0 | 0.00 | 0.00 | 0.00 | 66 | 1017.1 |
| 20260507005333 | 39 | 234 | 14.0 | 21.0 | 0.00 | 0.00 | 0.00 | 66 | 1017.4 |
| 20260507004830 | 40 | 216 | 15.0 | 20.0 | 0.00 | 0.00 | 0.00 | 67 | 1016.9 |
| 20260507004327 | 40 | 239 | 15.0 | 17.0 | 0.00 | 0.00 | 0.00 | 66 | 1017.4 |
| 20260507003824 | 40 | 239 | 17.0 | 20.0 | 0.00 | 0.00 | 0.00 | 65 | 1017.3 |
| 20260507003321 | 40 | 231 | 15.0 | 20.0 | 0.00 | 0.00 | 0.00 | 67 | 1017.0 |
| 20260507002815 | 40 | 246 | 13.0 | 20.0 | 0.00 | 0.00 | 0.00 | 67 | 1017.1 |
| 20260507002311 | 40 | 207 | 14.0 | 20.0 | 0.00 | 0.00 | 0.00 | 65 | 1017.4 |
| 20260507001803 | 40 | 231 | 18.0 | 21.0 | 0.00 | 0.00 | 0.00 | 64 | 1017.1 |
| 20260507001300 | 40 | 219 | 16.0 | 21.0 | 0.00 | 0.00 | 0.00 | 65 | 1017.3 |
| 20260507000756 | 40 | 239 | 13.0 | 21.0 | 0.00 | 0.00 | 0.00 | 64 | 1017.4 |
| 20260507000246 | 40 | 241 | 19.0 | 21.0 | 0.00 | 0.00 | 0.00 | 64 | 1017.5 |
| 20260506235743 | 40 | 245 | 17.0 | 18.0 | 0.00 | 0.00 | 0.00 | 64 | 1017.7 |
| 20260506235238 | 40 | 234 | 12.0 | 20.0 | 0.00 | 0.00 | 0.00 | 64 | 1017.7 |
| 20260506234735 | 40 | 225 | 13.0 | 17.0 | 0.00 | 0.00 | 0.00 | 65 | 1017.6 |
| 20260506234232 | 41 | 236 | 15.0 | 16.0 | 0.00 | 0.00 | 0.00 | 64 | 1017.7 |
| 20260506233730 | 40 | 230 | 15.0 | 18.0 | 0.00 | 0.00 | 0.00 | 66 | 1017.9 |
| 20260506233226 | 40 | 237 | 13.0 | 17.0 | 0.00 | 0.00 | 0.00 | 64 | 1018.0 |
| 20260506232723 | 40 | 240 | 16.0 | 17.0 | 0.00 | 0.00 | 0.00 | 61 | 1017.9 |
| 20260506232218 | 41 | 249 | 12.0 | 18.0 | 0.00 | 0.00 | 0.00 | 63 | 1017.9 |
| 20260506231716 | 41 | 235 | 14.0 | 16.0 | 0.00 | 0.00 | 0.00 | 61 | 1018.1 |
| 20260506231214 | 41 | 266 | 10.0 | 17.0 | 0.00 | 0.00 | 0.00 | 64 | 1017.9 |
| 20260506230710 | 41 | 256 | 13.0 | 17.0 | 0.00 | 0.00 | 0.00 | 63 | 1018.2 |
| 20260506230207 | 41 | 234 | 7.0 | 14.0 | 0.00 | 0.00 | 0.00 | 61 | 1018.0 |
| 20260506225703 | 41 | 222 | 12.0 | 17.0 | 0.00 | 0.00 | 0.00 | 61 | 1017.9 |
| 20260506225200 | 40 | 246 | 14.0 | 18.0 | 0.00 | 0.00 | 0.00 | 61 | 1017.9 |
| 20260506224651 | 40 | 228 | 13.0 | 17.0 | 0.00 | 0.00 | 0.00 | 60 | 1018.1 |
| 20260506224148 | 41 | 242 | 14.0 | 18.0 | 0.00 | 0.00 | 0.00 | 60 | 1018.0 |
| 20260506223645 | 41 | 253 | 15.0 | 17.0 | 0.00 | 0.00 | 0.00 | 58 | 1018.2 |
| 20260506223140 | 41 | 222 | 13.0 | 15.0 | 0.00 | 0.00 | 0.00 | 56 | 1018.3 |
| 20260506222637 | 41 | 249 | 12.0 | 15.0 | 0.00 | 0.00 | 0.00 | 60 | 1018.3 |
| 20260506222133 | 41 | 253 | 15.0 | 17.0 | 0.00 | 0.00 | 0.00 | 57 | 1018.6 |
| 20260506221631 | 41 | 227 | 10.0 | 15.0 | 0.00 | 0.00 | 0.00 | 64 | 1018.3 |
| 20260506221129 | 41 | 236 | 16.0 | 18.0 | 0.00 | 0.00 | 0.00 | 61 | 1018.6 |
| 20260506220625 | 40 | 241 | 12.0 | 17.0 | 0.00 | 0.00 | 0.00 | 61 | 1018.6 |
| 20260506220121 | 41 | 231 | 16.0 | 18.0 | 0.00 | 0.00 | 0.00 | 59 | 1018.8 |
| 20260506215618 | 41 | 224 | 7.0 | 13.0 | 0.00 | 0.00 | 0.00 | 61 | 1018.4 |
| 20260506215113 | 41 | 248 | 12.0 | 14.0 | 0.00 | 0.00 | 0.00 | 61 | 1018.7 |
| 20260506214611 | 40 | 252 | 10.0 | 17.0 | 0.00 | 0.00 | 0.00 | 58 | 1018.8 |
| 20260506214108 | 40 | 236 | 12.0 | 17.0 | 0.00 | 0.00 | 0.00 | 60 | 1018.9 |
| 20260506213606 | 40 | 220 | 10.0 | 15.0 | 0.00 | 0.00 | 0.00 | 62 | 1018.9 |
| 20260506213103 | 40 | 233 | 12.0 | 18.0 | 0.00 | 0.00 | 0.00 | 60 | 1019.0 |
| 20260506212600 | 40 | 245 | 11.0 | 16.0 | 0.00 | 0.00 | 0.00 | 57 | 1019.0 |
| 20260506212054 | 39 | 236 | 10.0 | 15.0 | 0.00 | 0.00 | 0.00 | 60 | 1019.3 |
| 20260506211550 | 39 | 236 | 9.0 | 15.0 | 0.00 | 0.00 | 0.00 | 55 | 1019.3 |
| 20260506211048 | 40 | 236 | 9.0 | 17.0 | 0.00 | 0.00 | 0.00 | 59 | 1019.4 |
| 20260506210544 | 39 | 236 | 13.0 | 17.0 | 0.00 | 0.00 | 0.00 | 58 | 1019.5 |
| 20260506210041 | 39 | 238 | 10.0 | 13.0 | 0.00 | 0.00 | 0.00 | 67 | 1019.4 |
| 20260506205537 | 39 | 209 | 12.0 | 16.0 | 0.00 | 0.00 | 0.00 | 62 | 1019.3 |
| 20260506205027 | 39 | 244 | 12.0 | 18.0 | 0.00 | 0.00 | 0.00 | 64 | 1019.5 |
| 20260506204525 | 39 | 234 | 10.0 | 16.0 | 0.00 | 0.00 | 0.00 | 66 | 1019.5 |
| 20260506204022 | 39 | 239 | 13.0 | 16.0 | 0.00 | 0.00 | 0.00 | 65 | 1019.4 |
| 20260506203521 | 39 | 220 | 8.0 | 10.0 | 0.00 | 0.00 | 0.00 | 64 | 1019.4 |
| 20260506203016 | 39 | 212 | 7.0 | 17.0 | 0.00 | 0.00 | 0.00 | 64 | 1019.4 |
| 20260506202514 | 39 | 211 | 9.0 | 11.0 | 0.00 | 0.00 | 0.00 | 65 | 1019.6 |
| 20260506202010 | 39 | 235 | 14.0 | 16.0 | 0.00 | 0.00 | 0.00 | 64 | 1019.6 |
| 20260506201508 | 39 | 252 | 7.0 | 14.0 | 0.00 | 0.00 | 0.00 | 58 | 1019.7 |
| 20260506200959 | 38 | 251 | 9.0 | 15.0 | 0.00 | 0.00 | 0.00 | 63 | 1019.9 |
| 20260506200455 | 39 | 229 | 11.0 | 14.0 | 0.00 | 0.00 | 0.00 | 65 | 1020.0 |
| 20260506195951 | 39 | 230 | 9.0 | 16.0 | 0.00 | 0.00 | 0.00 | 62 | 1019.9 |
| 20260506195448 | 39 | 272 | 5.0 | 11.0 | 0.00 | 0.00 | 0.00 | 58 | 1020.2 |
| 20260506194939 | 38 | 274 | 6.0 | 11.0 | 0.00 | 0.00 | 0.00 | 59 | 1020.0 |
| 20260506194436 | 39 | 243 | 7.0 | 11.0 | 0.00 | 0.00 | 0.00 | 59 | 1020.1 |
| 20260506193932 | 38 | 223 | 5.0 | 15.0 | 0.00 | 0.00 | 0.00 | 61 | 1020.0 |
| 20260506193429 | 38 | 238 | 10.0 | 13.0 | 0.00 | 0.00 | 0.00 | 59 | 1020.2 |
| 20260506192926 | 38 | 247 | 0.0 | 13.0 | 0.00 | 0.00 | 0.00 | 61 | 1019.9 |
| 20260506192424 | 38 | 248 | 4.0 | 9.0 | 0.00 | 0.00 | 0.00 | 63 | 1020.1 |
| 20260506191921 | 37 | 250 | 12.0 | 14.0 | 0.00 | 0.00 | 0.00 | 66 | 1019.9 |
| 20260506191417 | 37 | 311 | 6.0 | 10.0 | 0.00 | 0.00 | 0.00 | 68 | 1020.2 |
| 20260506190914 | 36 | 315 | 7.0 | 9.0 | 0.00 | 0.00 | 0.00 | 73 | 1020.1 |
| 20260506190410 | 36 | 313 | 5.0 | 10.0 | 0.00 | 0.00 | 0.00 | 70 | 1019.9 |
| 20260506185907 | 37 | 282 | 8.0 | 11.0 | 0.00 | 0.00 | 0.00 | 70 | 1020.2 |
| 20260506185404 | 37 | 233 | 8.0 | 10.0 | 0.00 | 0.00 | 0.00 | 72 | 1020.3 |
| 20260506184902 | 36 | 266 | 4.0 | 11.0 | 0.00 | 0.00 | 0.00 | 75 | 1020.2 |
| 20260506184358 | 37 | 220 | 8.0 | 13.0 | 0.00 | 0.00 | 0.00 | 72 | 1020.3 |
| 20260506183855 | 37 | 198 | 4.0 | 10.0 | 0.00 | 0.00 | 0.00 | 75 | 1020.4 |
| 20260506183350 | 36 | 282 | 10.0 | 11.0 | 0.00 | 0.00 | 0.00 | 75 | 1020.4 |
| 20260506182848 | 36 | 248 | 7.0 | 10.0 | 0.00 | 0.00 | 0.00 | 73 | 1020.8 |
| 20260506182345 | 36 | 267 | 7.0 | 10.0 | 0.00 | 0.00 | 0.00 | 75 | 1020.6 |
| 20260506181842 | 36 | 247 | 11.0 | 13.0 | 0.00 | 0.00 | 0.00 | 75 | 1020.6 |
| 20260506181341 | 36 | 261 | 6.0 | 11.0 | 0.00 | 0.00 | 0.00 | 77 | 1020.6 |
| 20260506180837 | 36 | 110 | 7.0 | 9.0 | 0.00 | 0.00 | 0.00 | 78 | 1020.7 |
| 20260506180333 | 35 | 236 | 9.0 | 10.0 | 0.00 | 0.00 | 0.00 | 79 | 1020.7 |
| 20260506175829 | 35 | 309 | 7.0 | 11.0 | 0.00 | 0.00 | 0.00 | 79 | 1020.7 |
| 20260506175326 | 35 | 317 | 7.0 | 9.0 | 0.00 | 0.00 | 0.00 | 78 | 1020.7 |
| 20260506174824 | 35 | 286 | 8.0 | 9.0 | 0.00 | 0.00 | 0.00 | 81 | 1020.8 |
| 20260506174321 | 35 | 156 | 5.0 | 10.0 | 0.00 | 0.00 | 0.00 | 80 | 1020.8 |
| 20260506173819 | 35 | 291 | 6.0 | 11.0 | 0.00 | 0.00 | 0.00 | 80 | 1020.7 |
| 20260506173315 | 34 | 241 | 5.0 | 7.0 | 0.00 | 0.00 | 0.00 | 80 | 1020.6 |
| 20260506172812 | 35 | 309 | 7.0 | 9.0 | 0.00 | 0.00 | 0.00 | 81 | 1020.7 |
| 20260506172309 | 34 | 202 | 3.0 | 6.0 | 0.00 | 0.00 | 0.00 | 81 | 1020.7 |
| 20260506171806 | 34 | 308 | 5.0 | 7.0 | 0.00 | 0.00 | 0.00 | 80 | 1020.7 |
| 20260506171303 | 34 | 261 | 6.0 | 10.0 | 0.00 | 0.00 | 0.00 | 80 | 1020.6 |
| 20260506170801 | 35 | 306 | 7.0 | 8.0 | 0.00 | 0.00 | 0.00 | 80 | 1020.7 |
| 20260506170257 | 34 | 291 | 4.0 | 8.0 | 0.00 | 0.00 | 0.00 | 80 | 1020.4 |
| 20260506165756 | 34 | 255 | 5.0 | 7.0 | 0.00 | 0.00 | 0.00 | 84 | 1020.6 |
| 20260506165253 | 34 | 223 | 4.0 | 6.0 | 0.00 | 0.00 | 0.00 | 81 | 1020.6 |
| 20260506164750 | 33 | 278 | 3.0 | 6.0 | 0.00 | 0.00 | 0.00 | 84 | 1020.4 |
| 20260506164246 | 33 | 257 | 4.0 | 9.0 | 0.00 | 0.00 | 0.00 | 83 | 1020.4 |
| 20260506163743 | 33 | 246 | 3.0 | 9.0 | 0.00 | 0.00 | 0.00 | 86 | 1020.3 |
| 20260506163238 | 32 | 319 | 7.0 | 9.0 | 0.00 | 0.00 | 0.00 | 84 | 1020.3 |
| 20260506162734 | 32 | 278 | 6.0 | 7.0 | 0.00 | 0.00 | 0.00 | 87 | 1020.3 |
| 20260506162232 | 32 | 197 | 3.0 | 8.0 | 0.00 | 0.00 | 0.00 | 89 | 1020.2 |
| 20260506161729 | 32 | 283 | 5.0 | 8.0 | 0.00 | 0.00 | 0.00 | 89 | 1020.4 |
| 20260506161227 | 31 | 184 | 2.0 | 7.0 | 0.00 | 0.00 | 0.00 | 90 | 1020.3 |
| 20260506160724 | 31 | 326 | 9.0 | 9.0 | 0.00 | 0.00 | 0.00 | 90 | 1020.3 |
| 20260506160220 | 32 | 227 | 5.0 | 8.0 | 0.00 | 0.00 | 0.00 | 90 | 1020.6 |
| 20260506155719 | 32 | 328 | 7.0 | 9.0 | 0.00 | 0.00 | 0.00 | 91 | 1020.3 |
| 20260506155216 | 32 | 299 | 7.0 | 10.0 | 0.00 | 0.00 | 0.00 | 91 | 1020.4 |
| 20260506153323 | 32 | 190 | 3.0 | 7.0 | 0.00 | 0.00 | 0.00 | 92 | 1020.1 |
| 20260506152820 | 31 | 351 | 3.0 | 6.0 | 0.00 | 0.00 | 0.00 | 92 | 1020.0 |
| 20260506152317 | 31 | 335 | 4.0 | 6.0 | 0.00 | 0.00 | 0.00 | 92 | 1019.9 |
| 20260506151817 | 31 | 329 | 7.0 | 9.0 | 0.00 | 0.00 | 0.00 | 92 | 1020.2 |
| 20260506151312 | 31 | 17 | 5.0 | 8.0 | 0.00 | 0.00 | 0.00 | 91 | 1020.1 |
| 20260506150810 | 31 | 327 | 5.0 | 9.0 | 0.00 | 0.00 | 0.00 | 91 | 1020.1 |
| 20260506150307 | 31 | 42 | 7.0 | 8.0 | 0.00 | 0.00 | 0.00 | 91 | 1019.9 |
| 20260506145803 | 31 | 14 | 7.0 | 8.0 | 0.00 | 0.00 | 0.00 | 91 | 1020.1 |
| 20260506145300 | 31 | 351 | 4.0 | 7.0 | 0.00 | 0.00 | 0.00 | 92 | 1020.1 |
| 20260506144757 | 32 | 187 | 4.0 | 7.0 | 0.00 | 0.00 | 0.00 | 92 | 1020.1 |
| 20260506144254 | 32 | 263 | 0.0 | 5.0 | 0.00 | 0.00 | 0.00 | 92 | 1020.3 |
| 20260506143752 | 31 | 34 | 3.0 | 6.0 | 0.00 | 0.00 | 0.00 | 92 | 1020.1 |
| 20260506143249 | 31 | 151 | 3.0 | 5.0 | 0.00 | 0.00 | 0.00 | 93 | 1020.2 |
| 20260506142747 | 31 | 83 | 3.0 | 5.0 | 0.00 | 0.00 | 0.00 | 93 | 1020.0 |
| 20260506142245 | 30 | 193 | 3.0 | 5.0 | 0.00 | 0.00 | 0.00 | 93 | 1019.9 |
| 20260506141743 | 30 | 51 | 4.0 | 6.0 | 0.00 | 0.00 | 0.00 | 93 | 1019.9 |
| 20260506141241 | 30 | 287 | 3.0 | 6.0 | 0.00 | 0.00 | 0.00 | 93 | 1019.7 |
| 20260506140738 | 29 | 5 | 6.0 | 7.0 | 0.00 | 0.00 | 0.00 | 93 | 1019.9 |
| 20260506140235 | 29 | 16 | 6.0 | 6.0 | 0.00 | 0.00 | 0.00 | 93 | 1019.9 |
| 20260506135732 | 29 | 31 | 4.0 | 6.0 | 0.00 | 0.00 | 0.00 | 94 | 1019.9 |
| 20260506135228 | 29 | 338 | 5.0 | 6.0 | 0.00 | 0.00 | 0.00 | 94 | 1019.9 |
| 20260506134725 | 29 | 35 | 6.0 | 7.0 | 0.00 | 0.00 | 0.00 | 94 | 1019.9 |
| 20260506134221 | 29 | 29 | 3.0 | 5.0 | 0.00 | 0.00 | 0.00 | 94 | 1019.7 |
| 20260506133719 | 29 | 348 | 4.0 | 5.0 | 0.00 | 0.00 | 0.00 | 94 | 1019.6 |
| 20260506133215 | 28 | 211 | 2.0 | 2.0 | 0.00 | 0.00 | 0.00 | 94 | 1019.6 |
| 20260506132712 | 28 | 252 | 2.0 | 3.0 | 0.00 | 0.00 | 0.00 | 94 | 1019.6 |
| 20260506132209 | 28 | 17 | 4.0 | 5.0 | 0.00 | 0.00 | 0.00 | 94 | 1019.5 |
| 20260506131707 | 28 | 1 | 2.0 | 2.0 | 0.00 | 0.00 | 0.00 | 94 | 1019.7 |
| 20260506131203 | 28 | 168 | 1.0 | 2.0 | 0.00 | 0.00 | 0.00 | 94 | 1019.9 |
| 20260506130700 | 28 | 214 | 2.0 | 5.0 | 0.00 | 0.00 | 0.00 | 94 | 1019.7 |
| 20260506130157 | 27 | 31 | 2.0 | 5.0 | 0.00 | 0.00 | 0.00 | 94 | 1019.5 |
| 20260506125655 | 27 | 121 | 3.0 | 5.0 | 0.00 | 0.00 | 0.00 | 94 | 1019.5 |
| 20260506125153 | 26 | 3 | 4.0 | 6.0 | 0.00 | 0.00 | 0.00 | 94 | 1019.4 |
| 20260506124650 | 26 | 88 | 5.0 | 6.0 | 0.00 | 0.00 | 0.00 | 94 | 1019.1 |
| 20260506124147 | 26 | 346 | 4.0 | 5.0 | 0.00 | 0.00 | 0.00 | 94 | 1019.3 |
| 20260506123645 | 26 | 340 | 3.0 | 5.0 | 0.00 | 0.00 | 0.00 | 94 | 1019.4 |
| 20260506123144 | 26 | 195 | 2.0 | 3.0 | 0.00 | 0.00 | 0.00 | 94 | 1019.1 |
| 20260506122640 | 26 | 283 | 2.0 | 3.0 | 0.00 | 0.00 | 0.00 | 94 | 1018.9 |
| 20260506122138 | 26 | 231 | 1.0 | 2.0 | 0.00 | 0.00 | 0.00 | 94 | 1019.0 |
| 20260506121635 | 26 | 336 | 3.0 | 5.0 | 0.00 | 0.00 | 0.00 | 94 | 1018.8 |
| 20260506121131 | 26 | 123 | 4.0 | 5.0 | 0.00 | 0.00 | 0.00 | 94 | 1018.7 |
| 20260506120630 | 26 | 114 | 3.0 | 5.0 | 0.00 | 0.00 | 0.00 | 94 | 1018.7 |
| 20260506120127 | 26 | 10 | 5.0 | 6.0 | 0.00 | 0.00 | 0.00 | 94 | 1018.8 |
| 20260506115625 | 25 | 165 | 2.0 | 3.0 | 0.00 | 0.00 | 0.00 | 94 | 1018.7 |
| 20260506115123 | 26 | 145 | 3.0 | 5.0 | 0.00 | 0.00 | 0.00 | 94 | 1018.4 |
| 20260506114620 | 26 | 106 | 3.0 | 3.0 | 0.00 | 0.00 | 0.00 | 94 | 1018.7 |
| 20260506114118 | 26 | 241 | 2.0 | 2.0 | 0.00 | 0.00 | 0.00 | 94 | 1018.7 |
| 20260506113616 | 26 | 160 | 3.0 | 3.0 | 0.00 | 0.00 | 0.00 | 94 | 1018.4 |
| 20260506113113 | 26 | 135 | 2.0 | 3.0 | 0.00 | 0.00 | 0.00 | 94 | 1018.2 |
| 20260506112609 | 27 | 119 | 2.0 | 3.0 | 0.00 | 0.00 | 0.00 | 94 | 1018.2 |
| 20260506112107 | 27 | 33 | 2.0 | 3.0 | 0.00 | 0.00 | 0.00 | 94 | 1018.3 |
| 20260506111604 | 27 | 140 | 2.0 | 3.0 | 0.00 | 0.00 | 0.00 | 94 | 1018.3 |
| 20260506111102 | 28 | 110 | 3.0 | 3.0 | 0.00 | 0.00 | 0.00 | 94 | 1017.9 |
| 20260506110559 | 28 | 79 | 5.0 | 7.0 | 0.00 | 0.00 | 0.00 | 94 | 1018.2 |
| 20260506110056 | 28 | 65 | 5.0 | 6.0 | 0.00 | 0.00 | 0.00 | 94 | 1018.2 |
| 20260506105552 | 28 | 82 | 4.0 | 7.0 | 0.00 | 0.00 | 0.00 | 94 | 1018.2 |
| 20260506105050 | 28 | 42 | 3.0 | 7.0 | 0.00 | 0.00 | 0.00 | 94 | 1017.9 |
| 20260506104548 | 28 | 41 | 4.0 | 8.0 | 0.00 | 0.00 | 0.00 | 94 | 1018.2 |
| 20260506104045 | 28 | 34 | 3.0 | 8.0 | 0.00 | 0.00 | 0.00 | 95 | 1018.1 |
| 20260506103542 | 28 | 52 | 4.0 | 7.0 | 0.00 | 0.00 | 0.00 | 95 | 1018.0 |
| 20260506103039 | 28 | 95 | 3.0 | 5.0 | 0.00 | 0.00 | 0.00 | 95 | 1018.3 |
| 20260506102538 | 28 | 109 | 1.0 | 3.0 | 0.00 | 0.00 | 0.00 | 95 | 1018.1 |
| 20260506102035 | 28 | 118 | 1.0 | 5.0 | 0.00 | 0.00 | 0.00 | 95 | 1018.1 |
| 20260506101531 | 28 | 119 | 1.0 | 3.0 | 0.00 | 0.00 | 0.00 | 95 | 1018.3 |
| 20260506101028 | 28 | 71 | 1.0 | 3.0 | 0.00 | 0.00 | 0.00 | 95 | 1018.2 |
| 20260506100526 | 28 | 88 | 0.0 | 3.0 | 0.00 | 0.00 | 0.00 | 95 | 1018.4 |
| 20260506100024 | 28 | 65 | 1.0 | 5.0 | 0.00 | 0.00 | 0.00 | 95 | 1018.1 |
| 20260506095523 | 28 | 81 | 1.0 | 5.0 | 0.00 | 0.00 | 0.00 | 95 | 1018.1 |
| 20260506095019 | 28 | 76 | 5.0 | 8.0 | 0.00 | 0.00 | 0.00 | 95 | 1017.7 |
| 20260506094517 | 28 | 67 | 2.0 | 10.0 | 0.00 | 0.00 | 0.00 | 95 | 1018.1 |
| 20260506094014 | 28 | 70 | 5.0 | 8.0 | 0.00 | 0.00 | 0.00 | 95 | 1017.9 |
| 20260506093513 | 28 | 73 | 4.0 | 8.0 | 0.00 | 0.00 | 0.00 | 95 | 1018.1 |
| 20260506093010 | 29 | 36 | 5.0 | 9.0 | 0.00 | 0.00 | 0.00 | 95 | 1018.1 |
| 20260506092508 | 29 | 61 | 1.0 | 5.0 | 0.00 | 0.00 | 0.00 | 95 | 1018.0 |
| 20260506092004 | 29 | 64 | 2.0 | 5.0 | 0.00 | 0.00 | 0.00 | 95 | 1017.9 |
| 20260506091502 | 29 | 86 | 1.0 | 3.0 | 0.00 | 0.00 | 0.00 | 95 | 1017.9 |
| 20260506090959 | 30 | 74 | 4.0 | 7.0 | 0.00 | 0.00 | 0.00 | 95 | 1018.0 |
| 20260506090457 | 30 | 97 | 2.0 | 3.0 | 0.00 | 0.00 | 0.00 | 94 | 1017.7 |
| 20260506085953 | 30 | 10 | 3.0 | 3.0 | 0.00 | 0.00 | 0.00 | 94 | 1017.6 |
| 20260506085450 | 30 | 151 | 1.0 | 3.0 | 0.00 | 0.00 | 0.00 | 94 | 1017.6 |
| 20260506084946 | 30 | 218 | 1.0 | 1.0 | 0.00 | 0.00 | 0.00 | 94 | 1017.7 |
| 20260506084443 | 30 | 249 | 2.0 | 2.0 | 0.00 | 0.00 | 0.00 | 94 | 1017.5 |
| 20260506083939 | 30 | 255 | 2.0 | 3.0 | 0.00 | 0.00 | 0.00 | 94 | 1017.4 |
| 20260506083437 | 30 | 181 | 0.0 | 0.0 | 0.00 | 0.00 | 0.00 | 94 | 1017.6 |
| 20260506082934 | 30 | 198 | 0.0 | 1.0 | 0.00 | 0.00 | 0.00 | 94 | 1017.5 |
| 20260506082431 | 30 | 210 | 2.0 | 2.0 | 0.00 | 0.00 | 0.00 | 95 | 1017.5 |
| 20260506081926 | 30 | 211 | 1.0 | 2.0 | 0.00 | 0.00 | 0.00 | 95 | 1017.6 |
| 20260506081425 | 30 | 185 | 0.0 | 0.0 | 0.00 | 0.00 | 0.00 | 95 | 1017.5 |
| 20260506080922 | 30 | 184 | 0.0 | 0.0 | 0.00 | 0.00 | 0.00 | 95 | 1017.4 |
| 20260506080419 | 30 | 167 | 0.0 | 0.0 | 0.00 | 0.00 | 0.00 | 95 | 1017.3 |
| 20260506073403 | 30 | 133 | 0.0 | 2.0 | 0.00 | 0.00 | 0.00 | 96 | 1017.4 |
| 20260506072859 | 30 | 85 | 3.0 | 5.0 | 0.00 | 0.00 | 0.00 | 96 | 1017.3 |
| 20260506072357 | 30 | 122 | 2.0 | 2.0 | 0.00 | 0.00 | 0.00 | 96 | 1017.6 |
| 20260506071854 | 30 | 116 | 1.0 | 1.0 | 0.00 | 0.00 | 0.00 | 96 | 1017.6 |
| 20260506071353 | 30 | 174 | 0.0 | 1.0 | 0.00 | 0.00 | 0.00 | 96 | 1017.6 |
| 20260506070849 | 30 | 199 | 0.0 | 1.0 | 0.00 | 0.00 | 0.00 | 96 | 1017.6 |
| 20260506070346 | 30 | 186 | 0.0 | 2.0 | 0.00 | 0.00 | 0.00 | 96 | 1017.7 |
| 20260506062323 | 31 | 90 | 2.0 | 3.0 | 0.00 | 0.00 | 0.00 | 97 | 1017.5 |
| 20260506061819 | 31 | 89 | 2.0 | 3.0 | 0.00 | 0.00 | 0.00 | 97 | 1017.6 |
| 20260506061316 | 31 | 90 | 2.0 | 2.0 | 0.00 | 0.00 | 0.00 | 97 | 1017.4 |
| 20260506060814 | 31 | 89 | 2.0 | 2.0 | 0.00 | 0.00 | 0.00 | 97 | 1017.4 |
| 20260506060312 | 31 | 90 | 1.0 | 2.0 | 0.00 | 0.00 | 0.00 | 97 | 1017.3 |
| 20260506051238 | 31 | 88 | 0.0 | 1.0 | 0.00 | 0.01 | 0.01 | 97 | 1016.9 |
| 20260506050736 | 31 | 88 | 1.0 | 1.0 | 0.00 | 0.01 | 0.01 | 97 | 1016.8 |
| 20260506050233 | 31 | 88 | 0.0 | 1.0 | 0.00 | 0.01 | 0.01 | 96 | 1016.9 |
| 20260506044724 | 31 | 87 | 1.0 | 2.0 | 0.00 | 0.01 | 0.01 | 97 | 1017.0 |
| 20260506044221 | 31 | 87 | 2.0 | 2.0 | 0.00 | 0.01 | 0.01 | 97 | 1017.3 |
| 20260506043718 | 31 | 87 | 1.0 | 2.0 | 0.00 | 0.01 | 0.01 | 96 | 1017.1 |
| 20260506043216 | 31 | 86 | 1.0 | 3.0 | 0.00 | 0.01 | 0.01 | 97 | 1016.8 |
| 20260506042714 | 31 | 86 | 2.0 | 3.0 | 0.00 | 0.01 | 0.01 | 96 | 1016.9 |
| 20260506042212 | 31 | 86 | 3.0 | 3.0 | 0.00 | 0.01 | 0.01 | 97 | 1017.1 |
| 20260506041711 | 32 | 86 | 3.0 | 3.0 | 0.00 | 0.01 | 0.01 | 96 | 1016.9 |
| 20260506041207 | 32 | 86 | 3.0 | 3.0 | 0.00 | 0.01 | 0.01 | 96 | 1016.9 |